Location: Piolenc
(44.1794°N, 4.7641°E)
Time: 03:53:35
(UTC+00:00)

FALCON 9 DEB - Pass Details

Date: 27 January 2021
Orbit: 372 x 386 km, 53.0° (Epoch: 27 February)

Event Time Altitude Azimuth Distance (km) Brightness Sun altitude
Exits shadow 06:18:32 10° 266° (W) 1,377 5.1 -8.4°
Maximum altitude 06:21:23 35° 335° (NNW) 625 3.6 -7.9°
Drops below altitude 10° 06:24:16 10° 44° (NE) 1,384 6.0 -7.4°
Sets 06:26:25 0° 53° (NE) 2,234 7.3 -7.1°
